23:40
Airports
History
Links
Donate
Help keep this website running!
PayPal
Bitcoin
This page is community maintained. The information is intended for PC simulator navigation or reference.
Always use approved charts for navigation.
AR23
Cedar Creek Ranch
Cedar Creek Ranch (AR23)
Belleville, Arkansas, United States (72824)
4
Lat/Lng:35° 8' 0.32" N / 93° 28' 30.67" W
35.133423 / -93.475187
Elevation:420'ft / 128mMSL
ID / ICAO:AR23
Runways:1
Longest:16-34
Grass 1,127m / 3,696ft
Nearby Weather22:53 GMT 2018-02-20
Nearby weather at KRUE, Russellville Rgnl located 23.2 nautical miles from AR23
Altimeter: 29.93
Visibility: 10.0 statute miles
Wind: 5 knots (from 160°)
Temp: 21°c / 70°f
Humidity: 77.9%

METAR: KRUE 202253Z AUTO 16005KT 10SM SCT048 BKN070 OVC085 21/17 A2993 RMK AO2 SLP129 T02110172

(Powered by phpweather)
Nearby VORs <50NM
Nearby NDBs
Runway 16 / 34
Dimensions:1126.5 x 21.3m 3696' x 70'ft
Surface:Grass
Edge Lights:Low intensity
Runway 16 [A]Runway 34 [B]
Heading:164°TH 344°TH
Lat:
Lng:
35° 8' 17.88"N
93° 28' 36.83"W
35° 7' 42.76"N
93° 28' 24.52"W
User Notes and Comments
35° 8' 0.32" N / 93° 28' 30.67" W
Distance To
Airport ID:
Nearby Airports
(U) Danville Muni 4.2 NM
32A SE 140°
(R) John Harris Field 11.2 NM
AR05 ENE 59°
(U) Paris Muni 16.3 NM
7M6 NW 314°
(R) Wesson-davis Field 16.6 NM
AR19 WNW 289°
(U) Booneville Muni 22.0 NM
4M2 W 272°
(U) Russellville Rgnl 23.2 NM
KRUE ( WX ) ENE 68°
(U) Clarksville Muni 23.5 NM
H35 N
VFR Chart
Flight Planning at SkyVector.com